This demonstration page uses our WeatherBlox Daily Observations layout. Learn more.

Left ArrowRight Arrow

Hourly Observations for October 1, 2021

Temp ( °F °C ) Dew Point ( °F °C ) Humidity (%) Winds ( mph kmh ) Pressure ( in mb ) Visibility ( mi km ) Precip ( " mm )
12:05 am 00:05 Mostly Cloudy 63 17.2 60 15.6 90 90 N N/A 30.05 1018 9 14 N/A
12:29 am 00:29 Cloudy 63 17.2 60 15.6 90 90 W 5 7 30.05 1018 7 11 N/A
12:54 am 00:54 Cloudy with Mist and Fog 62 16.7 60 15.6 93 93 WNW 6 9 30.05 1018 4 6 N/A
1:23 am 01:23 Cloudy with Mist and Fog 62 16.7 60 15.6 93 93 WNW 6 9 30.04 1017 3 4 N/A
1:32 am 01:32 Cloudy with Fog 62 16.7 60 15.6 93 93 NW 6 9 30.04 1017 1 1 N/A
1:54 am 01:54 Cloudy with Fog 62 16.7 60 15.6 93 93 WNW 7 11 30.03 1017 1 1 N/A
9:54 am 09:54 Cloudy 64 17.8 58 14.4 81 81 SSE 3 6 30.06 1018 10 16 N/A
10:54 am 10:54 Cloudy 66 18.9 58 14.4 75 75 VRB 3 6 30.06 1018 10 16 N/A
11:31 am 11:31 Cloudy 67 19.4 58 14.4 73 73 SW 6 9 30.04 1017 10 16 N/A
11:54 am 11:54 Cloudy 68 20 58 14.4 70 70 SSW 7 11 30.05 1018 10 16 N/A
12:54 pm 12:54 Cloudy 69 20.6 58 14.4 68 68 SW 9 15 30.04 1017 10 16 N/A
1:54 pm 13:54 Cloudy 68 20 58 14.4 70 70 SW 8 13 30.04 1017 10 16 N/A
2:54 pm 14:54 Cloudy 69 20.6 58 14.4 68 68 SW 8 13 30.03 1017 10 16 N/A
3:54 pm 15:54 Cloudy 70 21.1 58 14.4 66 66 SW 8 13 30.02 1017 10 16 N/A
4:54 pm 16:54 Cloudy 70 21.1 58 14.4 66 66 SW 8 13 30.02 1017 10 16 N/A
5:54 pm 17:54 Cloudy 70 21.1 58 14.4 66 66 WSW 9 15 30.02 1017 10 16 N/A
6:54 pm 18:54 Cloudy 69 20.6 57 13.9 66 66 WSW 6 9 30.02 1017 10 16 N/A
7:54 pm 19:54 Cloudy 67 19.4 58 14.4 73 73 SSW 5 7 30.03 1017 10 16 N/A
8:54 pm 20:54 Cloudy 66 18.9 58 14.4 75 75 SSW 5 7 30.03 1017 10 16 N/A
9:54 pm 21:54 Cloudy 64 17.8 58 14.4 81 81 SSE 3 6 30.04 1017 10 16 N/A
10:54 pm 22:54 Cloudy 65 18.3 59 15 81 81 S 3 6 30.04 1017 10 16 N/A
11:54 pm 23:54 Cloudy 65 18.3 59 15 81 81 S 3 6 30.04 1017 10 16 N/A

Powered by AerisWeather